Weather observations for the past three days for
Eureka Airport ASOS
Metric (Imperial)
Date Time (pdt) Wind (kph) Vis. (km) Weather Sky Cond. Temperature (ºC) Relative Humidity Wind Chill (°C) Heat Index (°C) Pressure Precipitation (cm)
Air Dwpt 6 hour altimeter (cm) sea level (mb) 1 hr 3 hr 6 hr
Max. Min.
10 12:53 E 19 G 31 0.00 NULL NULL 25.6 -16.1 5% 25 76.66 1016.0
10 11:53 Vrbl 9 0.00 NULL NULL 24.4 -15.6 6% 24 76.71 1016.5
10 10:53 Vrbl 7 0.00 NULL NULL 22.8 -13.9 23.3 1.7 7% 76.73 1017.4
10 09:53 Vrbl 7 0.00 NULL NULL 20 -8.3 14% 76.76 1017.4
10 08:53 Vrbl 6 0.00 NULL NULL 16.1 -8.9 17% 76.78 1017.9
10 07:53 Calm 0.00 NULL NULL 12.8 -8.9 21% 76.81 1018.2
10 06:53 SW 9 0.00 NULL NULL 6.7 -7.8 35% 5 76.78 1018.1
10 05:53 S 15 0.00 NULL NULL 3.3 -10 37% 0 76.73 1017.7
10 04:53 S 13 0.00 NULL NULL 1.7 -9.4 6.7 1.1 44% -2 76.73 1017.9
10 03:53 S 11 0.00 NULL NULL 1.7 -9.4 44% -1 76.71 1017.6
10 02:53 S 11 0.00 NULL NULL 3.9 -8.9 39% 1 76.73 1017.1
10 01:53 S 7 0.00 NULL NULL 3.9 -8.9 39% 2 76.68 1017.1
10 00:53 S 7 0.00 NULL NULL 3.9 -8.9 39% 2 76.71 1017.4
09 23:53 SE 11 0.00 NULL NULL 5 -8.9 36% 3 76.73 1017.9
09 22:53 SW 6 0.00 NULL NULL 4.4 -9.4 24.4 4.4 36% 76.68 1017.6
09 21:53 S 9 0.00 NULL NULL 10 -9.4 25% 9 76.66 1016.5
09 20:53 Calm 0.00 NULL NULL 12.2 -7.8 24% 76.63 1015.9
09 19:53 NE 9 0.00 NULL NULL 15.6 -8.3 19% 76.56 1014.8
09 18:53 N 15 0.00 NULL NULL 21.7 -9.4 12% 76.5 1013.7
09 16:53 NE 22 G 33 0.00 NULL NULL 23.9 -13.3 25 18.9 7% 23 76.5 1014.3
09 15:53 NE 17 0.00 NULL NULL 22.8 -10.6 10% 76.5 1014.2
09 14:53 NE 24 G 37 0.00 NULL NULL 24.4 -9.4 10% 24 76.53 1013.9
09 13:53 Calm 0.00 NULL NULL 22.8 -7.2 13% 76.58 1015.2
09 12:53 N 20 0.00 NULL NULL 22.8 -6.7 13% 76.63 1015.6
09 11:53 Calm 0.00 NULL NULL 19.4 -6.7 17% 76.68 1016.6
09 10:53 NE 15 0.00 NULL NULL 18.9 -6.1 20 0 18% 76.71 1016.7
09 09:53 N 9 0.00 NULL NULL 17.2 -5 22% 76.71 1016.7
09 08:53 N 9 0.00 NULL NULL 15.6 -6.1 22% 76.73 1016.5
09 07:53 Calm 0.00 NULL NULL 13.3 -5.6 27% 76.71 1016.7
09 06:53 S 6 0.00 NULL NULL 8.9 -3.3 42% 76.71 1016.4
09 05:53 SW 6 0.00 NULL NULL 2.8 -4.4 59% 76.66 1016.6
09 04:53 S 7 0.00 NULL NULL 2.2 -4.4 10 1.7 62% 0 76.63 1016.1
09 03:53 Calm 0.00 NULL NULL 5 -4.4 51% 76.61 1014.9
09 02:53 SW 7 0.00 NULL NULL 6.7 -3.9 47% 6 76.56 1014.2
09 01:53 S 7 0.00 NULL NULL 6.1 -4.4 47% 5 76.5 1013.7
09 00:53 S 9 0.00 NULL NULL 7.2 -4.4 44% 6 76.53 1014.0
08 23:53 S 11 0.00 NULL NULL 9.4 -4.4 38% 8 76.53 1013.8
08 22:53 S 13 0.00 NULL NULL 9.4 -3.9 25.6 9.4 39% 8 76.53 1014.3
08 21:53 Calm 0.00 NULL NULL 12.2 -4.4 31% 76.53 1013.8
08 20:53 NW 11 0.00 NULL NULL 15 -5.6 24% 76.45 1012.6
08 19:53 NW 15 0.00 NULL NULL 16.1 -7.2 20% 76.4 1012.0
08 18:53 NW 20 0.00 NULL NULL 22.8 -7.2 13% 76.35 1010.6
08 17:53 NW 24 G 37 0.00 NULL NULL 23.9 -6.7 12% 24 76.35 1011.8
08 16:53 Calm 0.00 NULL NULL 23.9 -4.4 26.1 20 15% 24 76.35 1011.6
08 15:53 NW 6 0.00 NULL NULL 25.6 -4.4 13% 25 76.35 1009.9
08 14:53 NW 15 G 39 0.00 NULL NULL 25.6 -5 13% 25 76.4 1010.5
08 13:53 Calm 0.00 NULL NULL 24.4 -7.2 12% 24 76.45 1012.1
08 12:53 Vrbl 7 0.00 NULL NULL 22.8 -4.4 16% 76.5 1012.7
08 11:53 E 13 0.00 NULL NULL 21.7 -2.2 20% 76.53 1012.8
08 10:53 E 13 0.00 NULL NULL 20 -2.2 20.6 3.9 22% 76.56 1013.8
08 09:53 E 11 0.00 NULL NULL 19.4 -2.8 22% 76.61 1013.5
08 08:53 NE 6 0.00 NULL NULL 18.3 -1.7 26% 76.61 1013.8
08 07:53 SW 11 0.00 NULL NULL 16.1 -1.1 31% 76.58 1013.9
08 06:53 S 7 0.00 NULL NULL 12.2 -0.6 42% 76.58 1013.8
08 05:53 S 13 0.00 NULL NULL 5 -2.8 57% 2 76.53 1014.6
08 04:53 Calm 0.00 NULL NULL 6.1 -2.8 15.6 6.1 53% 76.5 1013.6
08 03:53 S 13 0.00 NULL NULL 12.8 -3.3 33% 76.5 1012.2
08 02:53 Vrbl 9 0.00 NULL NULL 13.9 -4.4 28% 76.45 1011.5
08 01:53 SW 9 0.00 NULL NULL 10 -3.9 38% 9 76.45 1012.1
08 00:53 S 7 0.00 NULL NULL 11.1 -5 32% 76.48 1012.5
07 23:53 Vrbl 11 0.00 NULL NULL 15 -5.6 24% 76.45 1011.7
07 22:53 W 7 0.00 NULL NULL 14.4 -5.6 25 13.3 25% 76.45 1011.9
07 21:53 W 19 0.00 NULL NULL 17.8 -6.1 19% 76.43 1011.3
07 20:53 W 19 0.00 NULL NULL 18.3 -3.9 22% 76.4 1011.5
07 19:53 W 17 0.00 NULL NULL 19.4 -2.8 22% 76.38 1011.6
07 18:53 W 20 0.00 NULL NULL 22.2 -2.8 19% 76.35 1011.3
07 17:53 NW 26 G 41 0.00 NULL NULL 23.9 -3.9 15% 24 76.35 1011.6
07 16:53 NW 35 G 50 0.00 Breezy NULL 25 -5.6 25.6 20 13% 25 76.33 1011.1
07 15:53 NW 30 G 54 0.00 NULL NULL 25 -3.9 14% 25 76.33 1011.2
07 14:53 W 22 G 46 0.00 NULL NULL 25 -3.3 15% 25 76.4 1011.8
Date Time (pdt) Wind (kph) Vis. (km) Weather Sky Cond. Air Dwpt Max. Min. Relative Humidity Wind Chill (°C) Heat Index (°C) altimeter (cm) sea level (mb) 1 hr 3 hr 6 hr
6 hour
Temperature (ºC) Pressure Precipitation (cm)